Zurück zum Katalog

SL-14 R/B

AktivPO
NORAD 15100·ROCKET BODY·🇷🇺 Russia

Gestartet Jul 5, 1984 von Plesetsk Cosmodrome

Loading…

Nächste Überflüge (nächste 24 Stunden)

TLE

AktuellSource: Space-Track

Epoche: Sep 14, 2026, 22:29 UTC

1 15100U 84072B   26257.93700952  .00000042  00000-0  24619-4 0  9997
2 15100  82.5337 333.5284 0010986 222.6666 137.3643 13.84559822131895

Verfolge SL-14 R/B in Echtzeit mit AllMySat

Download on the App Store